User: anonymous   Login
Location: Unspecified
(0.0000°N, 0.0000°E)
Time: 00:57:22
(UTC+00:00)
Language:

STARLINK-35977 - Orbit

View from above orbital plane
View from above orbital plane
View from above satellite
View from above satellite

Ground track
Ground track

The orbit is defined by the following mean orbital elements,

1 66604U          26145.27774153 +.00000000 +00000-0 +55649-3 0 00001
2 66604  43.0021 343.2529 0001807 276.5672  83.4974 15.27590999    04
Epoch (UTC): 25 May 2026 06:39:56
Eccentricity: 0.0001807
inclination: 43.0021°
perigee height: 482 km
apogee height: 484 km
right ascension of ascending node: 343.2529°
argument of perigee: 276.5672°
revolutions per day: 15.27590999
mean anomaly at epoch: 83.4974°

The dashed part of the orbit path shows where the satellite is in the earth's shadow,  

DLR